GW6432 Weather Reports


Display with metric or nautical units.
time (UTC)temp
F
wind
direction
speed
MPH
gust
MPH
rain 1hr
in
rain 24hr
in
rain mn
in
humidity
%
barometer
mb
20260505192540 84 124 4.0 13.0 0.00 0.00 0.00 72 1007.7
20260505192036 84 144 5.0 13.0 0.00 0.00 0.00 72 1007.7
20260505191551 84 311 5.0 14.0 0.00 0.00 0.00 71 1007.9
20260505191037 84 116 5.0 14.0 0.00 0.00 0.00 72 1007.8
20260505190536 84 217 4.0 10.0 0.00 0.00 0.00 72 1007.8
20260505190053 84 148 3.0 12.0 0.00 0.00 0.00 72 1007.7
20260505185542 84 196 4.0 13.0 0.00 0.00 0.00 72 1007.8
20260505185037 84 243 4.0 15.0 0.00 0.00 0.00 72 1007.7
20260505184552 84 198 6.0 15.0 0.00 0.00 0.00 71 1007.8
20260505184037 84 227 6.0 12.0 0.00 0.00 0.00 71 1007.8
20260505183537 84 33 4.0 13.0 0.00 0.00 0.00 72 1007.8
20260505183048 84 192 5.0 13.0 0.00 0.00 0.00 72 1007.9
20260505182540 84 202 3.0 10.0 0.00 0.00 0.00 74 1007.9
20260505182037 83 187 5.0 13.0 0.00 0.00 0.00 75 1008.0
20260505181544 83 230 6.0 13.0 0.00 0.00 0.00 74 1008.0
20260505181041 83 146 5.0 13.0 0.00 0.00 0.00 75 1008.0
20260505180541 82 214 6.0 13.0 0.00 0.00 0.00 74 1008.0
20260505180048 82 192 5.0 12.0 0.00 0.00 0.00 74 1008.2
20260505175540 82 166 6.0 12.0 0.00 0.00 0.00 75 1008.3
20260505175037 82 145 7.0 12.0 0.00 0.00 0.00 75 1008.2
20260505174553 82 170 5.0 17.0 0.00 0.00 0.00 77 1008.3
20260505174037 81 145 4.0 17.0 0.00 0.00 0.00 78 1008.4
20260505173537 81 195 6.0 17.0 0.00 0.00 0.00 78 1008.5
20260505173047 81 211 5.0 12.0 0.00 0.00 0.00 79 1008.6
20260505172534 80 235 4.0 12.0 0.00 0.00 0.00 79 1008.7
20260505172033 80 231 3.0 12.0 0.00 0.00 0.00 79 1008.7
20260505171547 80 218 3.0 12.0 0.00 0.00 0.00 79 1008.8
20260505171037 80 222 4.0 11.0 0.00 0.00 0.00 80 1008.9
20260505170537 79 149 3.0 11.0 0.00 0.00 0.00 81 1008.9
20260505170047 79 182 3.0 15.0 0.00 0.00 0.00 81 1008.9
20260505165534 79 128 4.0 16.0 0.00 0.00 0.00 81 1008.8
20260505165034 79 122 6.0 17.0 0.00 0.00 0.00 82 1008.8
20260505164548 78 128 5.0 17.0 0.00 0.00 0.00 83 1008.9
20260505164034 78 126 5.0 12.0 0.00 0.00 0.00 83 1008.8
20260505163537 78 213 3.0 9.0 0.00 0.00 0.00 84 1008.9
20260505163052 77 200 3.0 9.0 0.00 0.00 0.00 85 1008.9
20260505162541 77 212 3.0 10.0 0.00 0.00 0.00 85 1008.9
20260505162037 77 127 3.0 10.0 0.00 0.00 0.00 85 1008.9
20260505161548 76 235 2.0 9.0 0.00 0.00 0.00 86 1008.9
20260505161036 76 223 3.0 9.0 0.00 0.00 0.00 86 1009.0
20260505160537 76 241 3.0 9.0 0.00 0.00 0.00 86 1009.1
20260505153051 74 198 4.0 9.0 0.00 0.00 0.00 88 1008.9
20260505152534 74 187 3.0 8.0 0.00 0.00 0.00 88 1008.9
20260505152035 74 206 2.0 12.0 0.00 0.00 0.00 89 1008.9
20260505151547 74 205 3.0 12.0 0.00 0.00 0.00 89 1008.9
20260505151034 73 184 4.0 12.0 0.00 0.00 0.00 89 1008.9
20260505150534 73 201 4.0 9.0 0.00 0.00 0.00 89 1008.8
20260505140534 72 210 3.0 9.0 0.00 0.00 0.00 90 1008.6
20260505125032 71 121 3.0 10.0 0.00 0.00 0.00 90 1008.3
20260505124546 71 198 2.0 11.0 0.00 0.00 0.00 90 1008.1
20260505124033 71 148 3.0 11.0 0.00 0.00 0.00 90 1008.3
20260505123536 71 140 3.0 7.0 0.00 0.00 0.00 90 1008.2
20260505123055 71 156 3.0 7.0 0.00 0.00 0.00 90 1008.3
20260505122535 70 178 3.0 7.0 0.00 0.00 0.00 90 1008.3
20260505122035 70 227 1.0 9.0 0.00 0.00 0.00 90 1008.4
20260505121548 70 218 3.0 10.0 0.00 0.00 0.00 90 1007.9
20260505121032 70 239 4.0 10.0 0.00 0.00 0.00 90 1007.6
20260505120536 70 208 4.0 9.0 0.00 0.00 0.00 90 1007.7
20260505120057 70 227 4.0 9.0 0.00 0.00 0.00 90 1007.6
20260505115534 70 163 4.0 8.0 0.00 0.00 0.00 90 1007.5
20260505115035 70 167 2.0 9.0 0.00 0.00 0.00 91 1007.7
20260505114548 70 168 3.0 9.0 0.00 0.00 0.00 91 1007.7
20260505114032 70 223 2.0 9.0 0.00 0.00 0.00 90 1007.7
20260505113535 70 227 4.0 9.0 0.00 0.00 0.00 90 1007.8
20260505113052 70 204 3.0 9.0 0.00 0.00 0.00 91 1007.6
20260505112535 70 223 2.0 7.0 0.00 0.00 0.00 91 1007.5
20260505112035 70 267 2.0 9.0 0.00 0.00 0.00 91 1007.7
20260505111548 70 188 3.0 9.0 0.00 0.00 0.00 91 1007.6
20260505111038 70 169 3.0 7.0 0.00 0.00 0.00 91 1007.5
20260505110533 70 138 2.0 7.0 0.00 0.00 0.00 91 1007.7
20260505102035 69 165 2.0 7.0 0.00 0.00 0.00 90 1007.6
20260505101554 69 202 2.0 7.0 0.00 0.00 0.00 90 1008.0
20260505101032 69 193 2.0 8.0 0.00 0.00 0.00 90 1007.7
20260505100533 69 234 3.0 9.0 0.00 0.00 0.00 90 1007.7
20260505100047 69 150 4.0 9.0 0.00 0.00 0.00 90 1007.6
20260505095535 69 195 3.0 8.0 0.00 0.00 0.00 90 1007.7
20260505095033 69 179 3.0 9.0 0.00 0.00 0.00 90 1007.7
20260505094557 69 109 2.0 10.0 0.00 0.00 0.00 90 1007.8
20260505094034 69 182 4.0 11.0 0.00 0.00 0.00 90 1007.8
20260505093535 69 175 4.0 11.0 0.00 0.00 0.00 90 1008.0
20260505093053 69 148 3.0 7.0 0.00 0.00 0.00 89 1007.9
20260505092535 69 192 2.0 9.0 0.00 0.00 0.00 89 1007.7
20260505092037 69 155 3.0 9.0 0.00 0.00 0.00 89 1007.9
20260505091550 69 164 2.0 7.0 0.00 0.00 0.00 89 1007.8
20260505091034 69 146 3.0 9.0 0.00 0.00 0.00 89 1007.9
20260505090535 69 144 2.0 9.0 0.00 0.00 0.00 89 1008.0
20260505090057 69 178 3.0 9.0 0.00 0.00 0.00 89 1007.9
20260505085537 69 122 3.0 9.0 0.00 0.00 0.00 89 1008.0
20260505085035 69 192 3.0 8.0 0.00 0.00 0.00 88 1008.2
20260505084548 69 194 3.0 8.0 0.00 0.00 0.00 88 1008.4
20260505084034 69 174 3.0 8.0 0.00 0.00 0.00 88 1008.4
20260505083538 69 186 2.0 8.0 0.00 0.00 0.00 88 1008.5
20260505083102 69 149 2.0 7.0 0.00 0.00 0.00 88 1008.6
20260505082532 69 199 4.0 8.0 0.00 0.00 0.00 88 1008.7
20260505082034 69 212 3.0 8.0 0.00 0.00 0.00 87 1008.7
20260505081550 69 213 2.0 7.0 0.00 0.00 0.00 87 1008.6
20260505081035 69 213 3.0 9.0 0.00 0.00 0.00 87 1008.8
20260505080536 69 185 2.0 9.0 0.00 0.00 0.00 87 1008.9
20260505080046 69 167 3.0 9.0 0.00 0.00 0.00 87 1008.9
20260505075535 69 188 3.0 8.0 0.00 0.00 0.00 87 1009.0
20260505075035 69 178 3.0 9.0 0.00 0.00 0.00 87 1008.9
20260505074549 69 213 3.0 9.0 0.00 0.00 0.00 87 1008.9
20260505074035 69 258 3.0 8.0 0.00 0.00 0.00 87 1008.9
20260505073535 69 190 3.0 8.0 0.00 0.00 0.00 87 1009.0
20260505073051 69 228 3.0 8.0 0.00 0.00 0.00 87 1008.9
20260505072535 69 210 4.0 8.0 0.00 0.00 0.00 86 1009.0
20260505072034 69 236 3.0 8.0 0.00 0.00 0.00 86 1009.0
20260505071552 69 184 3.0 8.0 0.00 0.00 0.00 86 1009.1
20260505071035 69 219 3.0 9.0 0.00 0.00 0.00 86 1009.2
20260505070536 69 188 3.0 9.0 0.00 0.00 0.00 86 1009.2
20260505065536 69 194 3.0 7.0 0.00 0.00 0.00 85 1009.4
20260505065034 69 167 2.0 7.0 0.00 0.00 0.00 85 1009.5
20260505064556 69 170 3.0 8.0 0.00 0.00 0.00 85 1009.6
20260505064035 69 202 4.0 11.0 0.00 0.00 0.00 85 1009.7
20260505063535 69 143 4.0 11.0 0.00 0.00 0.00 85 1009.6
20260505063051 69 211 4.0 11.0 0.00 0.00 0.00 85 1009.6
20260505062535 69 211 4.0 10.0 0.00 0.00 0.00 85 1009.7
20260505062037 69 186 5.0 10.0 0.00 0.00 0.00 84 1009.7
20260505061610 69 145 3.0 9.0 0.00 0.00 0.00 84 1009.7
20260505061035 70 168 4.0 9.0 0.00 0.00 0.00 84 1009.5
20260505060536 70 181 3.0 11.0 0.00 0.00 0.00 84 1009.5
20260505060057 70 184 3.0 11.0 0.00 0.00 0.00 84 1009.3
20260505055535 70 185 5.0 11.0 0.00 0.00 0.00 83 1009.4
20260505055037 70 178 4.0 13.0 0.00 0.00 0.00 83 1009.5
20260505054556 70 159 6.0 13.0 0.00 0.00 0.00 83 1009.6
20260505054034 70 147 4.0 13.0 0.00 0.00 0.00 83 1009.7
20260505053534 70 144 4.0 13.0 0.00 0.00 0.00 83 1009.7
20260505053048 70 197 5.0 14.0 0.00 0.00 0.00 82 1009.7
20260505052537 70 222 6.0 14.0 0.00 0.00 0.00 82 1009.5
20260505052037 70 137 6.0 14.0 0.00 0.00 0.00 82 1009.5
20260505051547 70 122 6.0 11.0 0.00 0.00 0.00 82 1009.5
20260505051038 70 174 5.0 15.0 0.00 0.00 0.00 82 1009.4
20260505050536 71 181 6.0 15.0 0.00 0.00 0.00 81 1009.5
20260505041548 72 198 5.0 16.0 0.00 0.00 0.00 80 1009.9
20260505041039 72 190 4.0 10.0 0.00 0.00 0.00 79 1010.0
20260505040536 72 165 4.0 10.0 0.00 0.00 0.00 79 1010.0
20260505040101 72 229 6.0 12.0 0.00 0.00 0.00 79 1009.9
20260505035536 72 239 5.0 12.0 0.00 0.00 0.00 78 1009.8
20260505035037 72 161 4.0 13.0 0.00 0.00 0.00 78 1009.7
20260505034548 72 201 5.0 13.0 0.00 0.00 0.00 78 1009.7
20260505034036 72 182 5.0 13.0 0.00 0.00 0.00 78 1009.7
20260505033536 72 209 5.0 13.0 0.00 0.00 0.00 78 1009.7
20260505033059 73 167 5.0 11.0 0.00 0.00 0.00 78 1009.7
20260505032535 73 167 4.0 13.0 0.00 0.00 0.00 78 1009.9
20260505032037 73 199 6.0 13.0 0.00 0.00 0.00 77 1009.8
20260505031552 73 206 6.0 11.0 0.00 0.00 0.00 77 1009.6
20260505031035 73 211 4.0 10.0 0.00 0.00 0.00 77 1009.7
20260505030535 73 168 4.0 13.0 0.00 0.00 0.00 77 1009.6
20260505030058 73 230 5.0 13.0 0.00 0.00 0.00 77 1009.8
20260505025533 73 217 5.0 11.0 0.00 0.00 0.00 77 1009.7
20260505025038 73 186 4.0 10.0 0.00 0.00 0.00 77 1009.7
20260505024545 73 209 3.0 8.0 0.00 0.00 0.00 77 1009.6
20260505024035 73 151 3.0 8.0 0.00 0.00 0.00 77 1009.5
20260505023534 73 161 3.0 7.0 0.00 0.00 0.00 76 1009.6
20260505023047 74 167 3.0 8.0 0.00 0.00 0.00 76 1009.6
20260505022535 74 213 2.0 8.0 0.00 0.00 0.00 75 1009.5
20260505022035 74 163 2.0 7.0 0.00 0.00 0.00 75 1009.5
20260505021551 74 140 3.0 7.0 0.00 0.00 0.00 75 1009.5
20260505021035 74 212 2.0 9.0 0.00 0.00 0.00 74 1009.6
20260505020535 74 211 4.0 9.0 0.00 0.00 0.00 74 1009.5
20260505020047 75 146 3.0 9.0 0.00 0.00 0.00 74 1009.4
20260505015535 75 178 3.0 10.0 0.00 0.00 0.00 73 1009.3
20260505015035 75 171 4.0 11.0 0.00 0.00 0.00 73 1009.2
20260505014549 75 132 4.0 11.0 0.00 0.00 0.00 73 1009.1
20260505014035 75 230 4.0 10.0 0.00 0.00 0.00 72 1009.1
20260505013534 75 197 4.0 16.0 0.00 0.00 0.00 72 1009.3
20260505013045 76 190 4.0 16.0 0.00 0.00 0.00 72 1009.3
20260505012535 76 208 4.0 11.0 0.00 0.00 0.00 72 1009.3
20260505012039 76 209 6.0 15.0 0.00 0.00 0.00 72 1009.3
20260505011548 76 265 6.0 15.0 0.00 0.00 0.00 71 1009.2
20260505011035 76 132 5.0 12.0 0.00 0.00 0.00 71 1009.2
20260505010535 76 198 6.0 12.0 0.00 0.00 0.00 71 1009.1
20260505010056 76 169 5.0 11.0 0.00 0.00 0.00 70 1009.1
20260505005535 76 142 4.0 10.0 0.00 0.00 0.00 70 1009.1
20260505005035 77 127 4.0 12.0 0.00 0.00 0.00 70 1009.0
20260505004552 77 145 5.0 12.0 0.00 0.00 0.00 69 1009.1
20260505004034 77 175 4.0 10.0 0.00 0.00 0.00 69 1009.1
20260505003534 77 203 3.0 10.0 0.00 0.00 0.00 68 1009.2
20260505003047 77 206 3.0 9.0 0.00 0.00 0.00 68 1009.1
20260505002535 77 159 4.0 9.0 0.00 0.00 0.00 68 1009.4
20260505002035 78 202 3.0 17.0 0.00 0.00 0.00 67 1009.4
20260505001545 78 132 6.0 17.0 0.00 0.00 0.00 67 1009.4
20260505001037 78 181 5.0 13.0 0.00 0.00 0.00 67 1009.4
20260505000535 78 183 7.0 13.0 0.00 0.00 0.00 66 1009.4
20260505000056 78 141 4.0 11.0 0.00 0.00 0.00 66 1009.4
20260504235535 78 146 3.0 15.0 0.00 0.00 0.00 66 1009.4
20260504235035 79 206 6.0 15.0 0.00 0.00 0.00 65 1009.5
20260504234604 79 96 6.0 14.0 0.00 0.00 0.00 64 1009.5
20260504234035 79 166 4.0 12.0 0.00 0.00 0.00 64 1009.5
20260504233535 79 136 6.0 13.0 0.00 0.00 0.00 63 1009.5
20260504233048 80 104 6.0 13.0 0.00 0.00 0.00 63 1009.5
20260504232536 80 201 6.0 15.0 0.00 0.00 0.00 62 1009.5
20260504232034 80 180 7.0 15.0 0.00 0.00 0.00 62 1009.4
20260504231550 81 136 4.0 13.0 0.00 0.00 0.00 62 1009.4
20260504231035 80 129 4.0 12.0 0.00 0.00 0.00 63 1009.4
20260504230536 80 177 5.0 12.0 0.00 0.00 0.00 62 1009.6
20260504230048 80 165 6.0 16.0 0.00 0.00 0.00 61 1009.7
20260504225536 81 184 6.0 16.0 0.00 0.00 0.00 61 1009.8
20260504225035 81 210 4.0 13.0 0.00 0.00 0.00 62 1009.8
20260504224545 81 189 3.0 10.0 0.00 0.00 0.00 62 1009.8
20260504224039 81 202 6.0 11.0 0.00 0.00 0.00 61 1009.9
20260504223535 81 124 6.0 11.0 0.00 0.00 0.00 61 1009.9
20260504223053 81 211 4.0 12.0 0.00 0.00 0.00 62 1010.0
20260504222531 80 163 5.0 12.0 0.00 0.00 0.00 62 1009.9
20260504222034 80 191 4.0 11.0 0.00 0.00 0.00 62 1009.8
20260504221549 80 132 4.0 12.0 0.00 0.00 0.00 62 1009.9
20260504221035 80 233 6.0 15.0 0.00 0.00 0.00 61 1010.1
20260504220535 80 155 6.0 15.0 0.00 0.00 0.00 62 1010.1
20260504220056 79 160 6.0 12.0 0.00 0.00 0.00 62 1010.2
20260504215535 80 146 5.0 12.0 0.00 0.00 0.00 61 1010.2
20260504215039 81 137 5.0 12.0 0.00 0.00 0.00 60 1010.3
20260504214546 81 136 5.0 17.0 0.00 0.00 0.00 60 1010.4
20260504214035 81 128 4.0 17.0 0.00 0.00 0.00 59 1010.5
20260504213535 81 121 6.0 14.0 0.00 0.00 0.00 59 1010.6
20260504213107 82 155 5.0 14.0 0.00 0.00 0.00 59 1010.5
20260504212535 82 206 4.0 15.0 0.00 0.00 0.00 60 1010.7
20260504212035 82 130 6.0 15.0 0.00 0.00 0.00 58 1010.6
20260504211551 82 144 5.0 12.0 0.00 0.00 0.00 58 1010.9
20260504211035 82 198 6.0 12.0 0.00 0.00 0.00 58 1011.0
20260504210535 82 188 5.0 14.0 0.00 0.00 0.00 58 1011.2
20260504210048 82 126 6.0 16.0 0.00 0.00 0.00 57 1011.0
20260504205536 82 228 5.0 16.0 0.00 0.00 0.00 58 1011.2
20260504205035 82 210 7.0 16.0 0.00 0.00 0.00 57 1011.4
20260504204555 82 212 4.0 13.0 0.00 0.00 0.00 59 1011.5
20260504204037 82 214 5.0 14.0 0.00 0.00 0.00 58 1011.6
20260504203535 82 204 5.0 14.0 0.00 0.00 0.00 57 1011.7
20260504203057 82 126 5.0 14.0 0.00 0.00 0.00 57 1011.6
20260504202535 82 147 6.0 11.0 0.00 0.00 0.00 58 1011.7
20260504202036 82 210 5.0 15.0 0.00 0.00 0.00 58 1011.7
20260504201551 81 188 5.0 15.0 0.00 0.00 0.00 59 1012.0
20260504201037 81 182 6.0 15.0 0.00 0.00 0.00 58 1011.9
20260504200536 81 177 6.0 12.0 0.00 0.00 0.00 58 1011.9
20260504200049 80 224 4.0 12.0 0.00 0.00 0.00 58 1012.1
20260504195535 80 198 5.0 12.0 0.00 0.00 0.00 58 1012.4
20260504195035 80 254 4.0 11.0 0.00 0.00 0.00 60 1012.4
20260504194551 80 207 3.0 12.0 0.00 0.00 0.00 57 1012.7
20260504194038 81 184 6.0 12.0 0.00 0.00 0.00 58 1012.7
20260504193536 81 211 4.0 13.0 0.00 0.00 0.00 59 1012.8
20260504193059 81 224 6.0 13.0 0.00 0.00 0.00 56 1012.8